CW3001 Weather Reports


Display with metric or nautical units.
time (UTC)temp
F
wind
direction
speed
MPH
gust
MPH
rain 1hr
in
rain 24hr
in
rain mn
in
humidity
%
barometer
mb
20260502222113 58 11 3.0 6.0 0.05 0.16 0.02 88 1012.9
20260502221600 58 10 1.0 4.0 0.06 0.16 0.02 89 1012.9
20260502221059 58 37 0.0 4.0 0.05 0.16 0.01 89 1012.9
20260502220600 58 38 2.0 7.0 0.06 0.16 0.01 89 1012.8
20260502220100 59 23 4.0 7.0 0.05 0.16 0.00 89 1012.9
20260502215559 59 8 4.0 6.0 0.06 0.11 0.15 88 1012.9
20260502215100 59 21 4.0 5.0 0.05 0.11 0.15 88 1013.0
20260502214600 59 17 2.0 5.0 0.05 0.11 0.14 88 1013.1
20260502214102 59 35 2.0 5.0 0.05 0.11 0.14 88 1013.1
20260502213612 59 83 2.0 6.0 0.04 0.11 0.13 88 1013.1
20260502213058 59 90 4.0 6.0 0.05 0.11 0.13 88 1013.1
20260502212636 59 104 3.0 4.0 0.06 0.11 0.13 87 1013.5
20260502212623 59 87 2.0 5.0 0.05 0.11 0.13 88 1013.2
20260502211846 59 97 2.0 4.0 0.06 0.11 0.12 87 1013.6
20260502211059 59 56 3.0 4.0 0.09 0.11 0.12 87 1013.8
20260502210601 59 56 2.0 4.0 0.08 0.11 0.11 86 1013.8
20260502210100 59 49 0.0 5.0 0.08 0.11 0.11 86 1013.9
20260502205614 60 49 1.0 5.0 0.07 0.03 0.10 86 1013.9
20260502205245 60 320 5.0 16.0 0.09 0.03 0.09 86 1014.1
20260502205217 60 37 3.0 7.0 0.10 0.03 0.10 85 1013.9
20260502204643 60 14 3.0 9.0 0.09 0.03 0.09 86 1014.2
20260502203557 60 345 6.0 17.0 0.09 0.03 0.09 86 1014.2
20260502203057 60 334 11.0 17.0 0.09 0.03 0.08 85 1014.1
20260502202558 60 295 8.0 17.0 0.08 0.03 0.08 85 1014.2
20260502202107 61 344 7.0 17.0 0.07 0.03 0.07 82 1014.5
20260502201556 62 0 6.0 23.0 0.06 0.03 0.05 80 1014.7
20260502201058 64 288 14.0 23.0 0.03 0.03 0.03 75 1014.7
20260502200633 67 76 4.0 9.0 0.03 0.03 0.03 72 1013.2
20260502200618 66 281 12.0 17.0 0.03 0.03 0.03 76 1014.4
20260502195614 67 92 2.0 9.0 0.03 0.00 0.03 71 1013.0
20260502195056 68 104 4.0 7.0 0.00 0.00 0.00 67 1013.1
20260502194556 68 89 5.0 7.0 0.00 0.00 0.00 66 1013.0
20260502194056 68 45 4.0 7.0 0.00 0.00 0.00 65 1012.8
20260502193556 68 58 4.0 7.0 0.00 0.00 0.00 65 1012.9
20260502193055 68 30 4.0 6.0 0.00 0.00 0.00 65 1012.9
20260502192555 68 45 4.0 6.0 0.00 0.00 0.00 65 1013.1
20260502192347 68 55 4.0 5.0 0.00 0.00 0.00 65 1013.2
20260502191555 68 51 3.0 5.0 0.00 0.00 0.00 64 1013.3
20260502191055 68 23 2.0 5.0 0.00 0.00 0.00 64 1013.3
20260502190611 68 28 2.0 4.0 0.00 0.00 0.00 64 1013.3
20260502190056 68 39 1.0 4.0 0.00 0.00 0.00 63 1013.3
20260502185555 69 37 2.0 3.0 0.00 0.00 0.00 63 1013.3
20260502185056 69 27 1.0 3.0 0.00 0.00 0.00 62 1013.4
20260502184555 69 30 2.0 4.0 0.00 0.00 0.00 62 1013.3
20260502184056 69 30 2.0 5.0 0.00 0.00 0.00 61 1013.4
20260502183604 70 31 3.0 6.0 0.00 0.00 0.00 60 1013.4
20260502183054 70 24 3.0 6.0 0.00 0.00 0.00 60 1013.4
20260502182556 70 39 2.0 5.0 0.00 0.00 0.00 59 1013.4
20260502182056 71 30 3.0 6.0 0.00 0.00 0.00 59 1013.4
20260502181554 71 23 4.0 9.0 0.00 0.00 0.00 58 1013.5
20260502181055 71 44 3.0 9.0 0.00 0.00 0.00 58 1013.5
20260502180554 72 7 3.0 6.0 0.00 0.00 0.00 57 1013.4
20260502180347 72 6 2.0 4.0 0.00 0.00 0.00 56 1013.3
20260502164051 74 262 3.0 4.0 0.00 0.00 0.00 52 1014.0
20260502163853 74 266 1.0 4.0 0.00 0.00 0.00 51 1014.0
20260502163051 75 298 1.0 4.0 0.00 0.00 0.00 51 1014.1
20260502162551 75 275 2.0 5.0 0.00 0.00 0.00 50 1014.2
20260502162053 75 279 3.0 5.0 0.00 0.00 0.00 50 1014.2
20260502161551 75 224 2.0 6.0 0.00 0.00 0.00 51 1014.2
20260502161050 75 241 2.0 6.0 0.00 0.00 0.00 50 1014.2
20260502160552 75 254 2.0 4.0 0.00 0.00 0.00 50 1014.4
20260502160204 76 341 0.0 6.0 0.00 0.00 0.00 49 1014.4
20260502160129 76 282 1.0 4.0 0.00 0.00 0.00 49 1014.4
20260502151610 77 182 5.0 10.0 0.00 0.00 0.00 46 1014.9
20260502151340 78 206 5.0 10.0 0.00 0.00 0.00 47 1015.0
20260502150550 77 237 5.0 10.0 0.00 0.00 0.00 46 1015.0
20260502130545 75 306 4.0 11.0 0.00 0.00 0.00 53 1016.6
20260502123544 74 207 5.0 11.0 0.00 0.00 0.00 56 1017.0
20260502123334 74 269 5.0 11.0 0.00 0.00 0.00 55 1017.0
20260502122544 73 275 5.0 11.0 0.00 0.00 0.00 56 1017.2
20260502122046 74 271 4.0 11.0 0.00 0.00 0.00 55 1017.2
20260502121544 74 195 6.0 11.0 0.00 0.00 0.00 54 1017.2
20260502121101 73 227 6.0 14.0 0.00 0.00 0.00 54 1017.4
20260502120546 73 238 8.0 14.0 0.00 0.00 0.00 54 1017.4
20260502115543 73 234 7.0 14.0 0.00 0.00 0.00 55 1017.6
20260502115042 73 166 7.0 13.0 0.00 0.00 0.00 57 1017.6
20260502114800 72 282 8.0 13.0 0.00 0.00 0.00 57 1017.8
20260502114043 72 235 6.0 13.0 0.00 0.00 0.00 57 1017.6
20260502113544 73 234 5.0 13.0 0.00 0.00 0.00 56 1017.8
20260502113043 73 216 9.0 13.0 0.00 0.00 0.00 56 1018.0
20260502112544 73 257 4.0 14.0 0.00 0.00 0.00 56 1017.8
20260502112043 74 254 9.0 16.0 0.00 0.00 0.00 55 1018.0
20260502111542 73 227 10.0 16.0 0.00 0.00 0.00 59 1017.9
20260502111042 71 202 4.0 12.0 0.00 0.00 0.00 59 1018.0
20260502110542 71 241 5.0 16.0 0.00 0.00 0.00 60 1018.2
20260502110333 71 261 9.0 16.0 0.00 0.00 0.00 60 1018.0
20260502105546 71 254 4.0 12.0 0.00 0.00 0.00 58 1018.0
20260502105043 72 257 7.0 12.0 0.00 0.00 0.00 58 1018.0
20260502104547 71 212 7.0 14.0 0.00 0.00 0.00 58 1018.1
20260502104044 71 209 6.0 14.0 0.00 0.00 0.00 59 1018.1
20260502103555 71 244 7.0 12.0 0.00 0.00 0.00 58 1018.2
20260502103043 72 281 8.0 13.0 0.00 0.00 0.00 57 1018.1
20260502102542 72 283 8.0 13.0 0.00 0.00 0.00 58 1018.2
20260502102042 71 207 6.0 13.0 0.00 0.00 0.00 58 1018.3
20260502101541 72 257 7.0 12.0 0.00 0.00 0.00 58 1018.3
20260502101042 71 131 6.0 13.0 0.00 0.00 0.00 58 1018.3
20260502100824 71 255 7.0 13.0 0.00 0.00 0.00 58 1018.3
20260502091040 69 196 3.0 11.0 0.00 0.00 0.00 57 1017.6
20260502090545 69 199 7.0 11.0 0.00 0.00 0.00 57 1017.5
20260502071032 61 237 4.0 6.0 0.00 0.00 0.00 59 1018.8
20260502070530 61 244 4.0 6.0 0.00 0.00 0.00 58 1018.9
20260502070031 60 152 4.0 6.0 0.00 0.00 0.00 59 1018.8
20260502065531 60 159 3.0 5.0 0.00 0.00 0.00 59 1018.7
20260502065033 59 154 3.0 5.0 0.00 0.00 0.00 59 1018.8
20260502064530 58 185 2.0 3.0 0.00 0.00 0.00 61 1018.8
20260502064031 57 185 0.0 2.0 0.00 0.00 0.00 63 1018.7
20260502063530 56 185 1.0 3.0 0.00 0.00 0.00 62 1018.7
20260502063030 56 185 1.0 3.0 0.00 0.00 0.00 63 1018.8
20260502062529 56 185 1.0 3.0 0.00 0.00 0.00 63 1018.8
20260502062030 55 185 0.0 2.0 0.00 0.00 0.00 64 1018.9
20260502061854 54 185 0.0 2.0 0.00 0.00 0.00 67 1018.9
20260502061848 54 185 1.0 2.0 0.00 0.00 0.00 66 1019.0
20260502060811 54 185 0.0 0.0 0.00 0.00 0.00 67 1018.8
20260502060032 54 185 0.0 0.0 0.00 0.00 0.00 67 1018.9
20260502055532 54 185 0.0 0.0 0.00 0.00 0.00 66 1018.9
20260502055313 54 185 0.0 0.0 0.00 0.00 0.00 64 1019.0
20260502054530 54 185 0.0 0.0 0.00 0.00 0.00 64 1018.9
20260502054030 53 185 0.0 0.0 0.00 0.00 0.00 64 1018.9
20260502053530 53 185 0.0 0.0 0.00 0.00 0.00 64 1018.8
20260502053031 53 185 0.0 0.0 0.00 0.00 0.00 64 1018.7
20260502052530 53 185 0.0 0.0 0.00 0.00 0.00 64 1018.7
20260502052336 53 182 0.0 0.0 0.00 0.00 0.00 66 1018.7
20260502051530 53 182 0.0 0.0 0.00 0.00 0.00 64 1018.5
20260502051031 53 182 0.0 0.0 0.00 0.00 0.00 64 1018.6
20260502050531 53 182 0.0 2.0 0.00 0.00 0.00 62 1018.7
20260502050030 53 180 0.0 2.0 0.00 0.00 0.00 62 1018.7
20260502045809 53 180 1.0 4.0 0.00 0.00 0.00 62 1018.6
20260502045031 53 180 0.0 4.0 0.00 0.00 0.00 62 1018.6
20260502044910 52 180 2.0 4.0 0.00 0.00 0.00 62 1018.7
20260502044031 52 180 1.0 4.0 0.00 0.00 0.00 62 1018.6
20260502043545 52 180 1.0 4.0 0.00 0.00 0.00 62 1018.7
20260502043029 52 180 2.0 4.0 0.00 0.00 0.00 62 1018.8
20260502042529 52 189 0.0 4.0 0.00 0.00 0.00 63 1018.8
20260502042312 52 186 0.0 4.0 0.00 0.00 0.00 63 1018.8
20260502041530 52 186 0.0 5.0 0.00 0.00 0.00 63 1018.7
20260502041030 51 183 2.0 5.0 0.00 0.00 0.00 63 1018.7
20260502040530 51 173 2.0 4.0 0.00 0.00 0.00 65 1018.7
20260502040031 51 165 0.0 3.0 0.00 0.00 0.00 65 1018.6
20260502035530 50 165 1.0 4.0 0.00 0.00 0.00 66 1018.6
20260502035030 50 157 1.0 4.0 0.00 0.00 0.00 67 1018.7
20260502034530 49 152 0.0 1.0 0.00 0.00 0.00 69 1018.7
20260502034313 49 151 0.0 0.0 0.00 0.00 0.00 71 1018.6
20260502033531 48 151 0.0 0.0 0.00 0.00 0.00 73 1018.6
20260502033311 48 151 0.0 0.0 0.00 0.00 0.00 74 1018.7
20260502032530 47 151 0.0 0.0 0.00 0.00 0.00 75 1018.7
20260502032030 47 151 0.0 0.0 0.00 0.00 0.00 75 1018.7
20260502031530 47 151 0.0 0.0 0.00 0.00 0.00 75 1018.7
20260502031031 46 151 0.0 0.0 0.00 0.00 0.00 75 1018.7
20260502030532 46 151 0.0 0.0 0.00 0.00 0.00 74 1018.7
20260502030053 46 151 0.0 0.0 0.00 0.00 0.00 74 1018.7
20260502025530 47 151 0.0 0.0 0.00 0.00 0.00 76 1018.8
20260502025031 47 151 0.0 0.0 0.00 0.00 0.00 76 1018.9
20260502024529 47 151 0.0 0.0 0.00 0.00 0.00 76 1018.8
20260502024029 46 151 0.0 0.0 0.00 0.00 0.00 74 1018.9
20260502023531 46 151 0.0 0.0 0.00 0.00 0.00 74 1019.0
20260502023029 46 151 0.0 0.0 0.00 0.00 0.00 74 1019.0
20260502022530 46 151 0.0 0.0 0.00 0.00 0.00 75 1019.1
20260502022314 45 151 0.0 0.0 0.00 0.00 0.00 74 1019.1
20260502021807 46 151 0.0 0.0 0.00 0.00 0.00 74 1019.1
20260502021311 46 151 0.0 0.0 0.00 0.00 0.00 74 1019.2
20260502020544 46 151 0.0 0.0 0.00 0.00 0.00 74 1019.1
20260502020028 46 151 0.0 0.0 0.00 0.00 0.00 74 1019.2
20260502015530 47 151 0.0 0.0 0.00 0.00 0.00 72 1019.3
20260502015030 47 151 0.0 0.0 0.00 0.00 0.00 71 1019.3
20260502014814 47 151 0.0 0.0 0.00 0.00 0.00 70 1019.3
20260502014321 47 151 0.0 0.0 0.00 0.00 0.00 70 1019.4
20260502013543 48 151 0.0 0.0 0.00 0.00 0.00 70 1019.3
20260502013028 48 151 0.0 0.0 0.00 0.00 0.00 69 1019.4
20260502012528 48 151 0.0 0.0 0.00 0.00 0.00 68 1019.5
20260502012027 49 151 0.0 0.0 0.00 0.00 0.00 68 1019.5
20260502011528 48 151 0.0 0.0 0.00 0.00 0.00 68 1019.6
20260502011027 48 151 0.0 0.0 0.00 0.00 0.00 68 1019.6
20260502010529 48 151 0.0 0.0 0.00 0.00 0.00 69 1019.7
20260502010027 48 151 0.0 0.0 0.00 0.00 0.00 68 1019.8
20260502005527 49 151 0.0 0.0 0.00 0.00 0.00 68 1019.8
20260502005026 49 151 0.0 0.0 0.00 0.00 0.00 68 1019.7
20260502004526 50 151 0.0 0.0 0.00 0.00 0.00 66 1019.8
20260502004025 50 151 0.0 0.0 0.00 0.00 0.00 64 1019.8
20260502003809 50 151 0.0 2.0 0.00 0.00 0.00 64 1019.9
20260502003345 50 151 0.0 4.0 0.00 0.00 0.00 66 1019.8
20260502003337 50 151 0.0 2.0 0.00 0.00 0.00 65 1019.9
20260502002023 49 151 2.0 4.0 0.00 0.00 0.00 66 1019.8
20260502001524 49 199 0.0 0.0 0.00 0.00 0.00 68 1019.8
20260502001023 49 200 0.0 0.0 0.00 0.00 0.00 69 1019.9
20260502000523 49 200 0.0 0.0 0.00 0.00 0.00 67 1019.9
20260502000021 49 199 0.0 0.0 0.00 0.00 0.00 67 1019.9
20260501235807 49 199 0.0 1.0 0.00 0.00 0.00 67 1020.0
20260501235019 49 199 0.0 1.0 0.00 0.00 0.00 67 1020.1
20260501234518 48 199 0.0 1.0 0.00 0.00 0.00 69 1020.1
20260501234020 47 200 0.0 0.0 0.00 0.00 0.00 72 1020.1
20260501233803 47 200 0.0 0.0 0.00 0.00 0.00 73 1020.2
20260501233020 47 200 0.0 0.0 0.00 0.00 0.00 71 1020.4
20260501232519 47 200 0.0 0.0 0.00 0.00 0.00 71 1020.4
20260501232020 48 200 0.0 2.0 0.00 0.00 0.00 72 1020.5
20260501231518 48 200 0.0 3.0 0.00 0.00 0.00 72 1020.4
20260501231018 48 200 1.0 3.0 0.00 0.00 0.00 73 1020.4
20260501230518 48 200 2.0 3.0 0.00 0.00 0.00 72 1020.5
20260501230018 48 197 2.0 3.0 0.00 0.00 0.00 72 1020.5
20260501225803 48 197 0.0 2.0 0.00 0.00 0.00 72 1020.5
20260501225018 48 197 0.0 2.0 0.00 0.00 0.00 72 1020.6
20260501224516 48 196 1.0 2.0 0.00 0.00 0.00 71 1020.6
20260501224014 49 197 1.0 2.0 0.00 0.00 0.00 71 1020.5
20260501223515 49 197 0.0 3.0 0.00 0.00 0.00 71 1020.5
20260501223015 49 197 2.0 3.0 0.00 0.00 0.00 71 1020.6
20260501222514 49 200 0.0 0.0 0.00 0.00 0.00 70 1020.6